Time,TemperatureF,DewpointF,PressureIn,WindDirection,WindDirectionDegrees,WindSpeedMPH,WindSpeedGustMPH,Humidity,HourlyPrecipIn,Conditions,Clouds,dailyrainin,SoftwareType,DateUTC
2013-06-22 00:02:00,41.9,28.4,23.99,North,353,0.0,0.0,24,-99.99,,,-99.99,meteohub,2013-06-22 06:02:00,
2013-06-22 00:07:00,41.7,28.4,23.99,North,353,0.0,0.0,24,-99.99,,,-99.99,meteohub,2013-06-22 06:07:00,
2013-06-22 00:12:00,41.5,28.4,23.99,North,353,0.0,0.0,24,-99.99,,,-99.99,meteohub,2013-06-22 06:12:00,
2013-06-22 00:17:00,41.0,28.2,23.99,NNW,331,2.0,0.0,24,-99.99,,,-99.99,meteohub,2013-06-22 06:17:00,
2013-06-22 00:23:00,41.0,28.2,23.96,NNW,343,0.0,3.0,24,-99.99,,,-99.99,meteohub,2013-06-22 06:23:00,
2013-06-22 00:28:00,40.8,28.0,23.96,NNW,339,0.0,3.0,24,-99.99,,,-99.99,meteohub,2013-06-22 06:28:00,
2013-06-22 00:33:00,40.5,28.0,23.96,NNW,339,0.0,3.0,24,-99.99,,,-99.99,meteohub,2013-06-22 06:33:00,
2013-06-22 00:38:00,39.9,28.0,23.96,NNW,339,0.0,0.0,24,-99.99,,,-99.99,meteohub,2013-06-22 06:38:00,
2013-06-22 00:43:00,39.7,28.0,23.96,NNW,339,0.0,0.0,24,-99.99,,,-99.99,meteohub,2013-06-22 06:43:00,
2013-06-22 00:48:00,39.4,28.0,23.96,NNW,339,0.0,0.0,24,-99.99,,,-99.99,meteohub,2013-06-22 06:48:00,
2013-06-22 00:53:00,39.2,27.9,23.96,NNW,339,0.0,0.0,24,-99.99,,,-99.99,meteohub,2013-06-22 06:53:00,
2013-06-22 00:59:00,39.0,27.9,23.96,NNW,339,0.0,0.0,24,-99.99,,,-99.99,meteohub,2013-06-22 06:59:00,
2013-06-22 01:04:00,38.8,27.7,23.96,NNW,339,0.0,0.0,24,-99.99,,,-99.99,meteohub,2013-06-22 07:04:00,
2013-06-22 01:09:00,38.8,27.7,23.96,NNW,339,0.0,0.0,24,-99.99,,,-99.99,meteohub,2013-06-22 07:09:00,
2013-06-22 01:14:00,38.7,27.7,23.96,NNW,339,0.0,0.0,24,-99.99,,,-99.99,meteohub,2013-06-22 07:14:00,
2013-06-22 01:19:00,38.5,27.5,23.96,NNW,339,0.0,0.0,24,-99.99,,,-99.99,meteohub,2013-06-22 07:19:00,
2013-06-22 01:24:00,37.6,27.5,23.96,NNW,339,0.0,0.0,24,-99.99,,,-99.99,meteohub,2013-06-22 07:24:00,
2013-06-22 01:30:00,37.6,27.5,23.96,NNW,339,0.0,0.0,24,-99.99,,,-99.99,meteohub,2013-06-22 07:30:00,
2013-06-22 01:35:00,37.4,27.5,23.96,NNW,339,0.0,0.0,24,-99.99,,,-99.99,meteohub,2013-06-22 07:35:00,
2013-06-22 01:40:00,37.4,27.3,23.96,NNW,339,0.0,0.0,24,-99.99,,,-99.99,meteohub,2013-06-22 07:40:00,
2013-06-22 01:45:00,37.4,27.3,23.96,NNW,339,0.0,0.0,24,-99.99,,,-99.99,meteohub,2013-06-22 07:45:00,
2013-06-22 01:50:00,37.0,27.3,23.96,NNW,339,0.0,0.0,24,-99.99,,,-99.99,meteohub,2013-06-22 07:50:00,
2013-06-22 01:55:00,37.2,27.3,23.96,NNW,339,0.0,0.0,24,-99.99,,,-99.99,meteohub,2013-06-22 07:55:00,
2013-06-22 02:00:00,37.2,27.1,23.96,NNW,339,0.0,0.0,24,-99.99,,,-99.99,meteohub,2013-06-22 08:00:00,
2013-06-22 02:06:00,37.2,27.1,23.96,NNW,339,0.0,0.0,24,-99.99,,,-99.99,meteohub,2013-06-22 08:06:00,
2013-06-22 02:11:00,37.0,27.1,23.96,NNW,339,0.0,0.0,24,-99.99,,,-99.99,meteohub,2013-06-22 08:11:00,
2013-06-22 02:16:00,36.9,27.0,23.96,NNW,339,0.0,0.0,24,-99.99,,,-99.99,meteohub,2013-06-22 08:16:00,
2013-06-22 02:21:00,36.7,27.0,23.96,NNW,339,0.0,0.0,24,-99.99,,,-99.99,meteohub,2013-06-22 08:21:00,
2013-06-22 02:26:00,36.3,26.8,23.96,NNW,339,0.0,0.0,24,-99.99,,,-99.99,meteohub,2013-06-22 08:26:00,
2013-06-22 02:31:00,36.3,26.8,23.96,NNW,339,0.0,0.0,24,-99.99,,,-99.99,meteohub,2013-06-22 08:31:00,
2013-06-22 02:37:00,36.1,26.6,23.96,NNW,339,0.0,0.0,24,-99.99,,,-99.99,meteohub,2013-06-22 08:37:00,
2013-06-22 02:42:00,35.8,26.6,23.96,NNW,339,0.0,0.0,24,-99.99,,,-99.99,meteohub,2013-06-22 08:42:00,
2013-06-22 02:47:00,35.1,26.6,23.96,NNW,339,0.0,0.0,24,-99.99,,,-99.99,meteohub,2013-06-22 08:47:00,
2013-06-22 02:52:00,35.2,26.6,23.96,NNW,339,0.0,0.0,24,-99.99,,,-99.99,meteohub,2013-06-22 08:52:00,
2013-06-22 02:57:00,35.4,26.6,23.96,NE,50,0.0,0.0,24,-99.99,,,-99.99,meteohub,2013-06-22 08:57:00,
2013-06-22 03:02:00,35.8,26.6,23.96,North,6,0.0,4.0,24,-99.99,,,-99.99,meteohub,2013-06-22 09:02:00,
2013-06-22 03:07:00,36.1,26.4,23.96,ENE,73,0.0,4.0,24,-99.99,,,-99.99,meteohub,2013-06-22 09:07:00,
2013-06-22 03:12:00,36.3,26.4,23.96,NNW,345,0.0,4.0,24,-99.99,,,-99.99,meteohub,2013-06-22 09:12:00,
2013-06-22 03:17:00,36.1,26.4,23.96,NNW,339,0.0,0.0,24,-99.99,,,-99.99,meteohub,2013-06-22 09:17:00,
2013-06-22 03:22:00,35.8,26.4,23.96,NNW,339,0.0,0.0,24,-99.99,,,-99.99,meteohub,2013-06-22 09:22:00,
2013-06-22 03:27:00,35.6,26.4,23.96,ENE,61,0.0,0.0,24,-99.99,,,-99.99,meteohub,2013-06-22 09:27:00,
2013-06-22 03:32:00,35.8,26.4,23.96,ENE,64,0.0,0.0,24,-99.99,,,-99.99,meteohub,2013-06-22 09:32:00,
2013-06-22 03:37:00,35.8,26.2,23.96,ENE,64,0.0,0.0,24,-99.99,,,-99.99,meteohub,2013-06-22 09:37:00,
2013-06-22 03:42:00,36.0,26.2,23.96,ENE,64,0.0,0.0,24,-99.99,,,-99.99,meteohub,2013-06-22 09:42:00,
2013-06-22 03:47:00,36.0,26.1,23.96,NNW,343,0.0,0.0,24,-99.99,,,-99.99,meteohub,2013-06-22 09:47:00,
2013-06-22 03:52:00,35.8,26.1,23.96,NNW,343,0.0,0.0,24,-99.99,,,-99.99,meteohub,2013-06-22 09:52:00,
2013-06-22 03:58:00,35.8,26.1,23.96,NNW,343,0.0,0.0,24,-99.99,,,-99.99,meteohub,2013-06-22 09:58:00,
2013-06-22 04:03:00,35.8,25.9,23.96,NNW,343,0.0,0.0,24,-99.99,,,-99.99,meteohub,2013-06-22 10:03:00,
2013-06-22 04:08:00,36.0,25.9,23.96,NNW,343,0.0,0.0,24,-99.99,,,-99.99,meteohub,2013-06-22 10:08:00,
2013-06-22 04:13:00,36.3,25.7,23.96,NNW,343,0.0,0.0,24,-99.99,,,-99.99,meteohub,2013-06-22 10:13:00,
2013-06-22 04:18:00,36.5,25.7,23.96,NNE,18,0.0,0.0,24,-99.99,,,-99.99,meteohub,2013-06-22 10:18:00,
2013-06-22 04:23:00,36.7,25.5,23.93,NNE,18,0.0,0.0,24,-99.99,,,-99.99,meteohub,2013-06-22 10:23:00,
2013-06-22 04:29:00,36.7,25.5,23.93,NNE,18,0.0,0.0,24,-99.99,,,-99.99,meteohub,2013-06-22 10:29:00,
2013-06-22 04:34:00,36.7,25.5,23.93,North,5,0.0,0.0,24,-99.99,,,-99.99,meteohub,2013-06-22 10:34:00,
2013-06-22 04:39:00,36.7,25.5,23.93,ENE,62,0.0,0.0,24,-99.99,,,-99.99,meteohub,2013-06-22 10:39:00,
2013-06-22 04:44:00,36.9,25.5,23.93,ENE,68,0.0,0.0,24,-99.99,,,-99.99,meteohub,2013-06-22 10:44:00,
2013-06-22 04:49:00,37.2,25.5,23.93,NNE,22,0.0,0.0,24,-99.99,,,-99.99,meteohub,2013-06-22 10:49:00,
2013-06-22 04:54:00,37.6,25.5,23.93,ESE,114,0.0,0.0,24,-99.99,,,-99.99,meteohub,2013-06-22 10:54:00,
2013-06-22 05:00:00,37.6,25.5,23.93,ESE,114,0.0,0.0,24,-99.99,,,-99.99,meteohub,2013-06-22 11:00:00,
2013-06-22 05:05:00,37.4,25.3,23.93,NE,45,0.0,0.0,24,-99.99,,,-99.99,meteohub,2013-06-22 11:05:00,
2013-06-22 05:10:00,37.4,25.3,23.93,NE,53,0.0,0.0,24,-99.99,,,-99.99,meteohub,2013-06-22 11:10:00,
2013-06-22 05:15:00,37.4,26.1,23.93,ENE,59,0.0,0.0,25,-99.99,,,-99.99,meteohub,2013-06-22 11:15:00,
2013-06-22 05:20:00,37.6,26.1,23.93,ENE,59,0.0,0.0,25,-99.99,,,-99.99,meteohub,2013-06-22 11:20:00,
2013-06-22 05:26:00,37.8,26.1,23.96,NE,38,0.0,0.0,25,-99.99,,,-99.99,meteohub,2013-06-22 11:26:00,
2013-06-22 05:31:00,37.9,26.1,23.96,ENE,74,0.0,0.0,25,-99.99,,,-99.99,meteohub,2013-06-22 11:31:00,
2013-06-22 05:36:00,38.1,26.1,23.96,ESE,110,0.0,0.0,25,-99.99,,,-99.99,meteohub,2013-06-22 11:36:00,
2013-06-22 05:41:00,38.5,26.1,23.93,ESE,102,0.0,0.0,25,-99.99,,,-99.99,meteohub,2013-06-22 11:41:00,
2013-06-22 05:46:00,38.7,26.1,23.93,East,99,0.0,0.0,25,-99.99,,,-99.99,meteohub,2013-06-22 11:46:00,
2013-06-22 05:52:00,38.8,26.1,23.96,East,99,0.0,0.0,25,-99.99,,,-99.99,meteohub,2013-06-22 11:52:00,
2013-06-22 05:57:00,39.2,26.1,23.96,East,99,0.0,0.0,25,-99.99,,,-99.99,meteohub,2013-06-22 11:57:00,
2013-06-22 06:02:00,39.6,25.9,23.96,East,99,0.0,0.0,25,-99.99,,,-99.99,meteohub,2013-06-22 12:02:00,
2013-06-22 06:07:00,39.9,25.9,23.96,East,99,0.0,0.0,25,-99.99,,,-99.99,meteohub,2013-06-22 12:07:00,
2013-06-22 06:12:00,39.7,25.9,23.96,East,99,0.0,0.0,25,-99.99,,,-99.99,meteohub,2013-06-22 12:12:00,
2013-06-22 06:17:00,39.9,25.9,23.96,East,99,0.0,0.0,25,-99.99,,,-99.99,meteohub,2013-06-22 12:17:00,
2013-06-22 06:22:00,40.3,25.9,23.96,East,99,0.0,0.0,25,-99.99,,,-99.99,meteohub,2013-06-22 12:22:00,
2013-06-22 06:27:00,40.5,25.7,23.96,North,0,5.0,0.0,25,-99.99,,,-99.99,meteohub,2013-06-22 12:27:00,
2013-06-22 06:32:00,40.1,25.7,23.96,North,0,4.0,0.0,25,-99.99,,,-99.99,meteohub,2013-06-22 12:32:00,
2013-06-22 06:37:00,40.1,25.7,23.96,East,81,0.0,8.0,25,-99.99,,,-99.99,meteohub,2013-06-22 12:37:00,
2013-06-22 06:42:00,40.5,25.7,23.96,East,81,0.0,8.0,25,-99.99,,,-99.99,meteohub,2013-06-22 12:42:00,
2013-06-22 06:48:00,40.6,25.9,23.96,East,81,0.0,8.0,25,-99.99,,,-99.99,meteohub,2013-06-22 12:48:00,
2013-06-22 06:53:00,40.6,25.9,23.96,East,81,0.0,0.0,25,-99.99,,,-99.99,meteohub,2013-06-22 12:53:00,
2013-06-22 06:58:00,40.6,26.1,23.96,East,81,0.0,0.0,25,-99.99,,,-99.99,meteohub,2013-06-22 12:58:00,
2013-06-22 07:04:00,41.0,26.1,23.96,East,96,0.0,3.0,25,-99.99,,,-99.99,meteohub,2013-06-22 13:04:00,
2013-06-22 07:09:00,41.4,26.4,23.96,ESE,112,0.0,3.0,25,-99.99,,,-99.99,meteohub,2013-06-22 13:09:00,
2013-06-22 07:14:00,41.5,26.6,23.96,ESE,115,0.0,3.0,25,-99.99,,,-99.99,meteohub,2013-06-22 13:14:00,
2013-06-22 07:19:00,41.9,27.0,23.96,ESE,106,4.0,0.0,25,-99.99,,,-99.99,meteohub,2013-06-22 13:19:00,
2013-06-22 07:24:00,42.1,27.0,23.99,NNW,343,0.0,6.0,25,-99.99,,,-99.99,meteohub,2013-06-22 13:24:00,
2013-06-22 07:30:00,42.1,27.3,23.99,North,0,3.0,6.0,25,-99.99,,,-99.99,meteohub,2013-06-22 13:30:00,
2013-06-22 07:35:00,41.9,27.3,23.99,NNW,333,0.0,6.0,25,-99.99,,,-99.99,meteohub,2013-06-22 13:35:00,
2013-06-22 07:40:00,41.9,27.7,23.99,NNW,333,4.0,6.0,25,-99.99,,,-99.99,meteohub,2013-06-22 13:40:00,
2013-06-22 07:45:00,42.1,27.7,23.99,NNW,337,3.0,5.0,25,-99.99,,,-99.99,meteohub,2013-06-22 13:45:00,
2013-06-22 07:50:00,42.3,26.8,23.99,North,353,0.0,5.0,24,-99.99,,,-99.99,meteohub,2013-06-22 13:50:00,
2013-06-22 07:56:00,42.4,27.0,23.99,NNW,331,3.0,5.0,24,-99.99,,,-99.99,meteohub,2013-06-22 13:56:00,
2013-06-22 08:01:00,42.8,27.1,23.99,NNW,341,0.0,5.0,24,-99.99,,,-99.99,meteohub,2013-06-22 14:01:00,
2013-06-22 08:06:00,42.8,27.3,23.99,NNW,341,0.0,4.0,24,-99.99,,,-99.99,meteohub,2013-06-22 14:06:00,
2013-06-22 08:11:00,43.0,27.5,23.99,SW,214,2.0,4.0,24,-99.99,,,-99.99,meteohub,2013-06-22 14:11:00,
2013-06-22 08:16:00,43.3,27.5,23.99,SW,214,0.0,3.0,24,-99.99,,,-99.99,meteohub,2013-06-22 14:16:00,
2013-06-22 08:22:00,43.3,27.5,23.99,SSW,199,0.0,4.0,24,-99.99,,,-99.99,meteohub,2013-06-22 14:22:00,
2013-06-22 08:27:00,43.2,27.7,23.99,SSE,150,0.0,4.0,24,-99.99,,,-99.99,meteohub,2013-06-22 14:27:00,
2013-06-22 08:32:00,43.2,27.9,23.99,SE,136,0.0,4.0,24,-99.99,,,-99.99,meteohub,2013-06-22 14:32:00,
2013-06-22 08:37:00,43.3,27.9,23.99,South,177,4.0,4.0,24,-99.99,,,-99.99,meteohub,2013-06-22 14:37:00,
2013-06-22 08:42:00,43.0,28.0,23.99,SSE,167,3.0,6.0,24,-99.99,,,-99.99,meteohub,2013-06-22 14:42:00,
2013-06-22 08:48:00,42.6,28.0,23.99,ESE,110,3.0,6.0,24,-99.99,,,-99.99,meteohub,2013-06-22 14:48:00,
2013-06-22 08:53:00,42.3,28.2,23.99,East,98,6.0,6.0,24,-99.99,,,-99.99,meteohub,2013-06-22 14:53:00,
2013-06-22 08:58:00,42.3,28.2,23.99,ESE,108,5.0,8.0,24,-99.99,,,-99.99,meteohub,2013-06-22 14:58:00,
2013-06-22 09:03:00,42.3,28.4,23.99,ESE,122,4.0,8.0,24,-99.99,,,-99.99,meteohub,2013-06-22 15:03:00,
2013-06-22 09:08:00,42.1,28.4,24.02,ESE,122,6.0,8.0,24,-99.99,,,-99.99,meteohub,2013-06-22 15:08:00,
2013-06-22 09:14:00,41.9,28.4,24.02,ESE,117,5.0,7.0,24,-99.99,,,-99.99,meteohub,2013-06-22 15:14:00,
2013-06-22 09:19:00,41.9,28.4,24.02,ESE,111,6.0,8.0,24,-99.99,,,-99.99,meteohub,2013-06-22 15:19:00,
2013-06-22 09:24:00,42.3,28.6,23.99,ESE,103,5.0,8.0,24,-99.99,,,-99.99,meteohub,2013-06-22 15:24:00,
2013-06-22 09:29:00,42.4,28.6,23.99,ESE,109,4.0,8.0,24,-99.99,,,-99.99,meteohub,2013-06-22 15:29:00,
2013-06-22 09:34:00,42.8,28.8,23.99,ESE,111,0.0,8.0,24,-99.99,,,-99.99,meteohub,2013-06-22 15:34:00,
2013-06-22 09:39:00,43.2,28.8,24.02,ESE,109,3.0,6.0,24,-99.99,,,-99.99,meteohub,2013-06-22 15:39:00,
2013-06-22 09:44:00,43.5,28.9,24.02,ESE,106,4.0,6.0,24,-99.99,,,-99.99,meteohub,2013-06-22 15:44:00,
2013-06-22 09:50:00,43.3,28.9,24.02,ESE,108,4.0,6.0,24,-99.99,,,-99.99,meteohub,2013-06-22 15:50:00,
2013-06-22 09:55:00,43.3,29.1,24.02,ESE,108,4.0,6.0,24,-99.99,,,-99.99,meteohub,2013-06-22 15:55:00,
2013-06-22 10:00:00,43.5,29.1,24.02,ESE,111,4.0,6.0,24,-99.99,,,-99.99,meteohub,2013-06-22 16:00:00,
2013-06-22 10:05:00,43.9,29.3,24.02,SE,128,2.0,6.0,24,-99.99,,,-99.99,meteohub,2013-06-22 16:05:00,
2013-06-22 10:11:00,44.6,29.3,24.02,ESE,104,0.0,7.0,24,-99.99,,,-99.99,meteohub,2013-06-22 16:11:00,
2013-06-22 10:16:00,45.3,29.5,24.02,NE,56,4.0,7.0,24,-99.99,,,-99.99,meteohub,2013-06-22 16:16:00,
2013-06-22 10:21:00,45.9,29.5,24.02,ESE,110,5.0,5.0,24,-99.99,,,-99.99,meteohub,2013-06-22 16:21:00,
2013-06-22 10:26:00,46.0,29.5,24.02,East,91,0.0,5.0,24,-99.99,,,-99.99,meteohub,2013-06-22 16:26:00,
2013-06-22 10:31:00,46.6,29.7,24.02,ENE,72,4.0,6.0,24,-99.99,,,-99.99,meteohub,2013-06-22 16:31:00,
2013-06-22 10:37:00,47.5,29.7,24.02,NNW,337,0.0,6.0,24,-99.99,,,-99.99,meteohub,2013-06-22 16:37:00,
2013-06-22 10:42:00,47.8,28.8,24.02,ENE,57,0.0,4.0,23,-99.99,,,-99.99,meteohub,2013-06-22 16:42:00,
2013-06-22 10:47:00,48.6,28.9,24.02,NNE,33,0.0,4.0,23,-99.99,,,-99.99,meteohub,2013-06-22 16:47:00,
2013-06-22 10:52:00,49.5,29.1,24.02,East,92,0.0,4.0,23,-99.99,,,-99.99,meteohub,2013-06-22 16:52:00,
2013-06-22 10:57:00,50.0,29.1,24.02,ENE,63,4.0,4.0,23,-99.99,,,-99.99,meteohub,2013-06-22 16:57:00,
2013-06-22 11:02:00,49.8,29.1,24.02,ENE,61,0.0,5.0,23,-99.99,,,-99.99,meteohub,2013-06-22 17:02:00,
2013-06-22 11:07:00,50.0,29.1,24.02,NE,56,0.0,5.0,23,-99.99,,,-99.99,meteohub,2013-06-22 17:07:00,
2013-06-22 11:12:00,50.0,28.9,24.02,SE,125,0.0,5.0,23,-99.99,,,-99.99,meteohub,2013-06-22 17:12:00,
2013-06-22 11:17:00,50.2,28.9,24.02,SW,216,3.0,5.0,23,-99.99,,,-99.99,meteohub,2013-06-22 17:17:00,
2013-06-22 11:22:00,51.6,28.8,24.02,South,172,2.0,5.0,23,-99.99,,,-99.99,meteohub,2013-06-22 17:22:00,
2013-06-22 11:27:00,51.6,29.7,24.02,SSE,159,4.0,5.0,24,-99.99,,,-99.99,meteohub,2013-06-22 17:27:00,
2013-06-22 11:32:00,51.3,29.5,24.02,SE,135,4.0,8.0,24,-99.99,,,-99.99,meteohub,2013-06-22 17:32:00,
2013-06-22 11:37:00,51.4,29.5,23.99,ESE,120,4.0,9.0,24,-99.99,,,-99.99,meteohub,2013-06-22 17:37:00,
2013-06-22 11:42:00,52.5,29.3,23.99,SSE,155,4.0,9.0,24,-99.99,,,-99.99,meteohub,2013-06-22 17:42:00,
2013-06-22 11:47:00,53.6,29.1,23.99,ESE,107,4.0,9.0,24,-99.99,,,-99.99,meteohub,2013-06-22 17:47:00,
2013-06-22 11:52:00,53.4,29.1,23.99,SE,125,5.0,9.0,24,-99.99,,,-99.99,meteohub,2013-06-22 17:52:00,
2013-06-22 11:57:00,52.7,28.9,23.99,SSE,165,4.0,9.0,24,-99.99,,,-99.99,meteohub,2013-06-22 17:57:00,
2013-06-22 12:03:00,52.3,28.9,23.99,South,178,8.0,9.0,24,-99.99,,,-99.99,meteohub,2013-06-22 18:03:00,
2013-06-22 12:08:00,51.3,28.8,23.99,South,189,8.0,11.0,24,-99.99,,,-99.99,meteohub,2013-06-22 18:08:00,
2013-06-22 12:13:00,52.5,28.8,23.99,South,185,7.0,11.0,24,-99.99,,,-99.99,meteohub,2013-06-22 18:13:00,
2013-06-22 12:18:00,53.2,28.8,23.99,South,180,8.0,11.0,24,-99.99,,,-99.99,meteohub,2013-06-22 18:18:00,
2013-06-22 12:23:00,53.2,28.6,23.99,South,189,8.0,10.0,24,-99.99,,,-99.99,meteohub,2013-06-22 18:23:00,
2013-06-22 12:29:00,53.4,28.6,23.99,South,171,6.0,10.0,24,-99.99,,,-99.99,meteohub,2013-06-22 18:29:00,
2013-06-22 12:34:00,54.3,28.4,23.99,SW,223,6.0,12.0,24,-99.99,,,-99.99,meteohub,2013-06-22 18:34:00,
2013-06-22 12:39:00,53.8,28.4,23.99,SW,218,5.0,12.0,24,-99.99,,,-99.99,meteohub,2013-06-22 18:39:00,
2013-06-22 12:44:00,53.1,28.4,23.99,WSW,238,8.0,12.0,24,-99.99,,,-99.99,meteohub,2013-06-22 18:44:00,
2013-06-22 12:49:00,54.0,28.4,23.99,South,184,8.0,10.0,24,-99.99,,,-99.99,meteohub,2013-06-22 18:49:00,
2013-06-22 12:55:00,54.5,28.4,23.99,SSE,162,0.0,10.0,24,-99.99,,,-99.99,meteohub,2013-06-22 18:55:00,
2013-06-22 13:00:00,55.2,28.4,23.99,WSW,240,5.0,9.0,24,-99.99,,,-99.99,meteohub,2013-06-22 19:00:00,
2013-06-22 13:05:00,54.1,28.4,23.99,West,268,6.0,9.0,24,-99.99,,,-99.99,meteohub,2013-06-22 19:05:00,
2013-06-22 13:10:00,54.1,28.4,23.99,ESE,113,11.0,11.0,24,-99.99,,,-99.99,meteohub,2013-06-22 19:10:00,
2013-06-22 13:15:00,54.9,28.2,23.99,SSW,195,11.0,11.0,24,-99.99,,,-99.99,meteohub,2013-06-22 19:15:00,
2013-06-22 13:20:00,54.9,28.2,23.99,South,180,8.0,11.0,24,-99.99,,,-99.99,meteohub,2013-06-22 19:20:00,
2013-06-22 13:26:00,54.1,28.2,23.99,SSW,206,8.0,11.0,24,-99.99,,,-99.99,meteohub,2013-06-22 19:26:00,
2013-06-22 13:31:00,53.1,28.2,23.99,SW,214,6.0,12.0,24,-99.99,,,-99.99,meteohub,2013-06-22 19:31:00,
2013-06-22 13:36:00,52.0,28.2,23.99,South,190,11.0,12.0,24,-99.99,,,-99.99,meteohub,2013-06-22 19:36:00,
2013-06-22 13:41:00,50.5,28.2,23.99,SSW,202,8.0,12.0,24,-99.99,,,-99.99,meteohub,2013-06-22 19:41:00,
2013-06-22 13:46:00,51.1,28.2,23.99,SSW,193,10.0,15.0,24,-99.99,,,-99.99,meteohub,2013-06-22 19:46:00,
2013-06-22 13:51:00,51.4,28.2,23.99,SSW,195,10.0,15.0,24,-99.99,,,-99.99,meteohub,2013-06-22 19:51:00,
2013-06-22 13:57:00,50.0,28.2,23.99,South,180,9.0,15.0,24,-99.99,,,-99.99,meteohub,2013-06-22 19:57:00,
2013-06-22 14:02:00,47.8,28.0,23.99,South,170,8.0,13.0,24,-99.99,,,-99.99,meteohub,2013-06-22 20:02:00,
2013-06-22 14:07:00,47.7,28.0,23.99,South,174,6.0,13.0,24,-99.99,,,-99.99,meteohub,2013-06-22 20:07:00,
2013-06-22 14:12:00,50.4,28.0,23.99,South,191,8.0,13.0,24,-99.99,,,-99.99,meteohub,2013-06-22 20:12:00,
2013-06-22 14:17:00,52.7,28.0,23.99,SW,233,11.0,13.0,24,-99.99,,,-99.99,meteohub,2013-06-22 20:17:00,
2013-06-22 14:22:00,53.6,27.9,23.99,South,174,12.0,13.0,24,-99.99,,,-99.99,meteohub,2013-06-22 20:22:00,
2013-06-22 14:27:00,53.6,27.9,23.99,South,177,8.0,13.0,24,-99.99,,,-99.99,meteohub,2013-06-22 20:27:00,
2013-06-22 14:32:00,53.2,27.9,23.99,SSE,158,8.0,13.0,24,-99.99,,,-99.99,meteohub,2013-06-22 20:32:00,
2013-06-22 14:37:00,52.0,27.7,23.99,South,181,7.0,13.0,24,-99.99,,,-99.99,meteohub,2013-06-22 20:37:00,
2013-06-22 14:42:00,51.4,27.7,23.99,SSE,164,5.0,13.0,24,-99.99,,,-99.99,meteohub,2013-06-22 20:42:00,
2013-06-22 14:47:00,51.8,27.7,23.99,South,174,6.0,13.0,24,-99.99,,,-99.99,meteohub,2013-06-22 20:47:00,
2013-06-22 14:52:00,52.3,27.5,23.99,ESE,118,7.0,13.0,24,-99.99,,,-99.99,meteohub,2013-06-22 20:52:00,
2013-06-22 14:57:00,52.5,27.7,23.99,SSE,166,4.0,13.0,24,-99.99,,,-99.99,meteohub,2013-06-22 20:57:00,
2013-06-22 15:02:00,54.1,27.7,23.99,ESE,110,5.0,9.0,24,-99.99,,,-99.99,meteohub,2013-06-22 21:02:00,
2013-06-22 15:07:00,54.5,27.7,23.99,South,175,4.0,9.0,24,-99.99,,,-99.99,meteohub,2013-06-22 21:07:00,
2013-06-22 15:13:00,55.2,27.7,23.99,South,177,4.0,10.0,24,-99.99,,,-99.99,meteohub,2013-06-22 21:13:00,
2013-06-22 15:18:00,56.1,27.7,23.99,SSE,157,2.0,10.0,24,-99.99,,,-99.99,meteohub,2013-06-22 21:18:00,
2013-06-22 15:23:00,55.9,27.7,23.99,SSW,206,5.0,10.0,24,-99.99,,,-99.99,meteohub,2013-06-22 21:23:00,
2013-06-22 15:28:00,54.7,27.7,23.99,West,261,5.0,8.0,24,-99.99,,,-99.99,meteohub,2013-06-22 21:28:00,
2013-06-22 15:33:00,54.9,27.7,23.99,South,191,4.0,9.0,24,-99.99,,,-99.99,meteohub,2013-06-22 21:33:00,
2013-06-22 15:38:00,56.8,27.7,23.99,SSE,153,3.0,9.0,24,-99.99,,,-99.99,meteohub,2013-06-22 21:38:00,
2013-06-22 15:44:00,58.5,27.7,23.99,WSW,256,3.0,9.0,24,-99.99,,,-99.99,meteohub,2013-06-22 21:44:00,
2013-06-22 15:49:00,59.4,27.7,23.99,SSW,193,3.0,8.0,24,-99.99,,,-99.99,meteohub,2013-06-22 21:49:00,
2013-06-22 15:54:00,59.2,27.7,23.96,West,266,0.0,8.0,24,-99.99,,,-99.99,meteohub,2013-06-22 21:54:00,
2013-06-22 15:59:00,58.1,27.9,23.96,SSW,196,5.0,5.0,24,-99.99,,,-99.99,meteohub,2013-06-22 21:59:00,
2013-06-22 16:04:00,56.1,27.9,23.96,South,173,9.0,9.0,24,-99.99,,,-99.99,meteohub,2013-06-22 22:04:00,
2013-06-22 16:09:00,55.0,27.9,23.96,SSW,212,5.0,9.0,24,-99.99,,,-99.99,meteohub,2013-06-22 22:09:00,
2013-06-22 16:15:00,54.1,27.9,23.96,SSW,198,8.0,9.0,24,-99.99,,,-99.99,meteohub,2013-06-22 22:15:00,
2013-06-22 16:20:00,53.8,27.9,23.96,SSW,213,4.0,9.0,24,-99.99,,,-99.99,meteohub,2013-06-22 22:20:00,
2013-06-22 16:25:00,54.0,27.7,23.96,South,191,4.0,9.0,24,-99.99,,,-99.99,meteohub,2013-06-22 22:25:00,
2013-06-22 16:30:00,54.0,27.7,23.96,South,183,7.0,9.0,24,-99.99,,,-99.99,meteohub,2013-06-22 22:30:00,
2013-06-22 16:35:00,53.8,27.7,23.96,SSW,207,3.0,8.0,24,-99.99,,,-99.99,meteohub,2013-06-22 22:35:00,
2013-06-22 16:41:00,54.0,27.7,23.96,South,183,3.0,8.0,24,-99.99,,,-99.99,meteohub,2013-06-22 22:41:00,
2013-06-22 16:46:00,54.5,27.7,23.96,South,190,3.0,6.0,24,-99.99,,,-99.99,meteohub,2013-06-22 22:46:00,
2013-06-22 16:51:00,55.8,27.7,23.96,South,190,2.0,6.0,24,-99.99,,,-99.99,meteohub,2013-06-22 22:51:00,
2013-06-22 16:56:00,56.5,27.7,23.96,ESE,104,5.0,6.0,24,-99.99,,,-99.99,meteohub,2013-06-22 22:56:00,
2013-06-22 17:01:00,57.6,27.7,23.96,ESE,117,4.0,6.0,24,-99.99,,,-99.99,meteohub,2013-06-22 23:01:00,
2013-06-22 17:06:00,59.2,27.7,23.96,ESE,120,5.0,6.0,24,-99.99,,,-99.99,meteohub,2013-06-22 23:06:00,
2013-06-22 17:12:00,59.4,27.7,23.96,SSE,150,4.0,6.0,24,-99.99,,,-99.99,meteohub,2013-06-22 23:12:00,
2013-06-22 17:17:00,58.5,27.7,23.96,SE,127,4.0,8.0,24,-99.99,,,-99.99,meteohub,2013-06-22 23:17:00,
2013-06-22 17:22:00,57.0,27.7,23.96,SSE,156,0.0,8.0,24,-99.99,,,-99.99,meteohub,2013-06-22 23:22:00,
2013-06-22 17:27:00,58.3,27.7,23.96,ENE,61,0.0,8.0,24,-99.99,,,-99.99,meteohub,2013-06-22 23:27:00,
2013-06-22 17:32:00,59.5,27.9,23.96,ESE,102,0.0,6.0,24,-99.99,,,-99.99,meteohub,2013-06-22 23:32:00,
2013-06-22 17:37:00,59.7,28.9,23.96,ESE,104,4.0,6.0,25,-99.99,,,-99.99,meteohub,2013-06-22 23:37:00,
2013-06-22 17:42:00,59.5,28.4,23.96,NE,48,3.0,6.0,24,-99.99,,,-99.99,meteohub,2013-06-22 23:42:00,
2013-06-22 17:47:00,60.3,28.6,23.96,East,99,3.0,6.0,24,-99.99,,,-99.99,meteohub,2013-06-22 23:47:00,
2013-06-22 17:52:00,60.8,28.9,23.96,North,357,0.0,6.0,24,-99.99,,,-99.99,meteohub,2013-06-22 23:52:00,
2013-06-22 17:57:00,60.4,29.3,23.96,WSW,244,0.0,6.0,24,-99.99,,,-99.99,meteohub,2013-06-22 23:57:00,
2013-06-22 18:02:00,60.3,29.5,23.96,SSE,167,2.0,5.0,24,-99.99,,,-99.99,meteohub,2013-06-23 00:02:00,
2013-06-22 18:07:00,59.5,29.8,23.96,WSW,239,3.0,5.0,24,-99.99,,,-99.99,meteohub,2013-06-23 00:07:00,
2013-06-22 18:12:00,58.8,28.9,23.96,West,263,5.0,6.0,23,-99.99,,,-99.99,meteohub,2013-06-23 00:12:00,
2013-06-22 18:17:00,59.2,29.1,23.96,WSW,255,3.0,6.0,23,-99.99,,,-99.99,meteohub,2013-06-23 00:17:00,
2013-06-22 18:22:00,59.2,29.3,23.99,SSW,195,3.0,6.0,23,-99.99,,,-99.99,meteohub,2013-06-23 00:22:00,
2013-06-22 18:27:00,59.5,29.5,23.99,SE,124,4.0,6.0,23,-99.99,,,-99.99,meteohub,2013-06-23 00:27:00,
2013-06-22 18:32:00,58.8,29.7,23.99,NE,48,5.0,6.0,23,-99.99,,,-99.99,meteohub,2013-06-23 00:32:00,
2013-06-22 18:37:00,57.9,29.8,23.99,ESE,120,4.0,6.0,23,-99.99,,,-99.99,meteohub,2013-06-23 00:37:00,
2013-06-22 18:42:00,57.2,29.8,23.99,ESE,119,3.0,6.0,23,-99.99,,,-99.99,meteohub,2013-06-23 00:42:00,
2013-06-22 18:47:00,56.7,30.0,23.99,ESE,114,4.0,6.0,23,-99.99,,,-99.99,meteohub,2013-06-23 00:47:00,
2013-06-22 18:52:00,56.1,30.2,23.99,NE,55,4.0,6.0,23,-99.99,,,-99.99,meteohub,2013-06-23 00:52:00,
2013-06-22 18:57:00,55.4,30.2,23.99,ESE,123,3.0,6.0,23,-99.99,,,-99.99,meteohub,2013-06-23 00:57:00,
2013-06-22 19:02:00,55.2,30.4,23.99,NE,35,6.0,6.0,23,-99.99,,,-99.99,meteohub,2013-06-23 01:02:00,
2013-06-22 19:07:00,55.0,30.6,23.99,NNE,14,3.0,6.0,23,-99.99,,,-99.99,meteohub,2013-06-23 01:07:00,
2013-06-22 19:12:00,55.2,30.6,23.99,SE,127,5.0,6.0,23,-99.99,,,-99.99,meteohub,2013-06-23 01:12:00,
2013-06-22 19:17:00,55.6,30.7,23.99,SE,137,3.0,6.0,23,-99.99,,,-99.99,meteohub,2013-06-23 01:17:00,
2013-06-22 19:22:00,55.6,30.7,23.99,ENE,60,3.0,6.0,23,-99.99,,,-99.99,meteohub,2013-06-23 01:22:00,
2013-06-22 19:28:00,55.2,30.7,23.99,East,93,3.0,6.0,23,-99.99,,,-99.99,meteohub,2013-06-23 01:28:00,
2013-06-22 19:33:00,55.4,30.9,23.99,NE,36,2.0,6.0,23,-99.99,,,-99.99,meteohub,2013-06-23 01:33:00,
2013-06-22 19:38:00,55.2,30.9,23.99,ESE,107,4.0,5.0,23,-99.99,,,-99.99,meteohub,2013-06-23 01:38:00,
2013-06-22 19:43:00,55.0,30.9,23.99,ESE,115,3.0,5.0,23,-99.99,,,-99.99,meteohub,2013-06-23 01:43:00,
2013-06-22 19:48:00,55.4,31.1,23.99,ESE,105,3.0,5.0,23,-99.99,,,-99.99,meteohub,2013-06-23 01:48:00,
2013-06-22 19:53:00,55.8,31.1,23.99,ESE,120,3.0,5.0,23,-99.99,,,-99.99,meteohub,2013-06-23 01:53:00,
2013-06-22 19:59:00,55.9,31.3,23.99,ESE,119,3.0,6.0,23,-99.99,,,-99.99,meteohub,2013-06-23 01:59:00,
2013-06-22 20:04:00,56.5,31.3,23.99,East,88,5.0,6.0,23,-99.99,,,-99.99,meteohub,2013-06-23 02:04:00,
2013-06-22 20:09:00,56.5,31.5,23.99,ESE,115,3.0,6.0,23,-99.99,,,-99.99,meteohub,2013-06-23 02:09:00,
2013-06-22 20:14:00,56.7,31.5,23.99,ESE,105,4.0,6.0,23,-99.99,,,-99.99,meteohub,2013-06-23 02:14:00,
2013-06-22 20:19:00,56.7,31.5,23.99,SE,124,3.0,6.0,23,-99.99,,,-99.99,meteohub,2013-06-23 02:19:00,
2013-06-22 20:25:00,56.1,31.6,23.99,ESE,110,4.0,6.0,23,-99.99,,,-99.99,meteohub,2013-06-23 02:25:00,
2013-06-22 20:30:00,55.4,31.8,23.99,East,99,3.0,6.0,23,-99.99,,,-99.99,meteohub,2013-06-23 02:30:00,
2013-06-22 20:35:00,55.0,32.0,23.99,East,92,3.0,6.0,23,-99.99,,,-99.99,meteohub,2013-06-23 02:35:00,
2013-06-22 20:40:00,54.5,32.0,24.02,East,84,4.0,6.0,23,-99.99,,,-99.99,meteohub,2013-06-23 02:40:00,
2013-06-22 20:45:00,54.3,32.2,24.02,ENE,77,0.0,6.0,23,-99.99,,,-99.99,meteohub,2013-06-23 02:45:00,
2013-06-22 20:50:00,54.1,32.4,24.02,ESE,111,0.0,5.0,23,-99.99,,,-99.99,meteohub,2013-06-23 02:50:00,
2013-06-22 20:56:00,53.6,32.4,24.02,ESE,103,0.0,4.0,23,-99.99,,,-99.99,meteohub,2013-06-23 02:56:00,
2013-06-22 21:01:00,53.2,32.4,24.02,East,100,4.0,5.0,23,-99.99,,,-99.99,meteohub,2013-06-23 03:01:00,
2013-06-22 21:06:00,53.1,32.2,24.02,East,97,0.0,5.0,23,-99.99,,,-99.99,meteohub,2013-06-23 03:06:00,
2013-06-22 21:11:00,53.1,32.0,24.02,East,97,0.0,5.0,23,-99.99,,,-99.99,meteohub,2013-06-23 03:11:00,
2013-06-22 21:16:00,53.1,31.5,24.02,East,97,0.0,4.0,23,-99.99,,,-99.99,meteohub,2013-06-23 03:16:00,
2013-06-22 21:22:00,52.7,32.4,24.02,East,97,0.0,0.0,24,-99.99,,,-99.99,meteohub,2013-06-23 03:22:00,
2013-06-22 21:27:00,52.5,32.4,24.02,East,97,0.0,0.0,24,-99.99,,,-99.99,meteohub,2013-06-23 03:27:00,
2013-06-22 21:32:00,52.2,32.5,24.02,East,97,0.0,0.0,24,-99.99,,,-99.99,meteohub,2013-06-23 03:32:00,
2013-06-22 21:37:00,51.6,32.7,24.02,East,97,0.0,0.0,24,-99.99,,,-99.99,meteohub,2013-06-23 03:37:00,
2013-06-22 21:42:00,51.4,31.8,24.02,East,97,0.0,3.0,23,-99.99,,,-99.99,meteohub,2013-06-23 03:42:00,
2013-06-22 21:47:00,51.3,32.0,24.02,East,97,0.0,3.0,23,-99.99,,,-99.99,meteohub,2013-06-23 03:47:00,
2013-06-22 21:52:00,50.9,33.4,24.02,East,97,0.0,3.0,24,-99.99,,,-99.99,meteohub,2013-06-23 03:52:00,
2013-06-22 21:57:00,50.7,33.4,24.02,East,97,0.0,3.0,24,-99.99,,,-99.99,meteohub,2013-06-23 03:57:00,
2013-06-22 22:01:00,50.7,33.4,24.02,East,97,0.0,0.0,24,-99.99,,,-99.99,meteohub,2013-06-23 04:01:00,
2013-06-22 22:02:00,50.7,33.6,24.02,East,97,0.0,0.0,24,-99.99,,,-99.99,meteohub,2013-06-23 04:02:00,
2013-06-22 22:03:00,50.7,32.5,24.02,East,97,0.0,0.0,23,-99.99,,,-99.99,meteohub,2013-06-23 04:03:00,
2013-06-22 22:04:00,50.7,32.5,24.02,East,97,0.0,0.0,23,-99.99,,,-99.99,meteohub,2013-06-23 04:04:00,
2013-06-22 22:09:00,50.7,32.5,24.02,East,97,0.0,0.0,23,-99.99,,,-99.99,meteohub,2013-06-23 04:09:00,
2013-06-22 22:14:00,50.5,33.8,24.02,East,97,0.0,0.0,24,-99.99,,,-99.99,meteohub,2013-06-23 04:14:00,
2013-06-22 22:19:00,50.4,33.6,24.02,East,97,0.0,0.0,24,-99.99,,,-99.99,meteohub,2013-06-23 04:19:00,
2013-06-22 22:24:00,50.2,33.6,24.05,East,97,0.0,0.0,24,-99.99,,,-99.99,meteohub,2013-06-23 04:24:00,
2013-06-22 22:30:00,50.2,33.6,24.05,East,97,0.0,0.0,24,-99.99,,,-99.99,meteohub,2013-06-23 04:30:00,
2013-06-22 22:35:00,50.2,33.4,24.05,East,97,4.0,0.0,24,-99.99,,,-99.99,meteohub,2013-06-23 04:35:00,
2013-06-22 22:40:00,50.0,33.4,24.05,East,97,0.0,0.0,24,-99.99,,,-99.99,meteohub,2013-06-23 04:40:00,
2013-06-22 22:45:00,49.6,33.3,24.05,East,97,0.0,4.0,24,-99.99,,,-99.99,meteohub,2013-06-23 04:45:00,
2013-06-22 22:50:00,49.3,33.1,24.05,East,97,0.0,4.0,24,-99.99,,,-99.99,meteohub,2013-06-23 04:50:00,
2013-06-22 22:56:00,48.9,32.9,24.02,East,97,0.0,4.0,24,-99.99,,,-99.99,meteohub,2013-06-23 04:56:00,
2013-06-22 23:01:00,48.7,32.7,24.02,East,97,0.0,0.0,24,-99.99,,,-99.99,meteohub,2013-06-23 05:01:00,
2013-06-22 23:06:00,48.6,32.5,24.02,East,97,0.0,0.0,24,-99.99,,,-99.99,meteohub,2013-06-23 05:06:00,
2013-06-22 23:11:00,48.4,32.4,24.02,East,97,0.0,0.0,24,-99.99,,,-99.99,meteohub,2013-06-23 05:11:00,
2013-06-22 23:16:00,48.0,32.4,24.02,East,97,0.0,0.0,24,-99.99,,,-99.99,meteohub,2013-06-23 05:16:00,
2013-06-22 23:21:00,47.8,32.2,24.02,East,97,0.0,0.0,24,-99.99,,,-99.99,meteohub,2013-06-23 05:21:00,
2013-06-22 23:27:00,47.5,32.0,24.02,East,97,0.0,0.0,24,-99.99,,,-99.99,meteohub,2013-06-23 05:27:00,
2013-06-22 23:32:00,47.3,31.8,24.02,East,97,0.0,0.0,24,-99.99,,,-99.99,meteohub,2013-06-23 05:32:00,
2013-06-22 23:37:00,47.3,31.8,24.02,East,97,0.0,0.0,24,-99.99,,,-99.99,meteohub,2013-06-23 05:37:00,
2013-06-22 23:42:00,47.1,31.6,24.02,East,97,0.0,0.0,24,-99.99,,,-99.99,meteohub,2013-06-23 05:42:00,
2013-06-22 23:47:00,46.8,31.6,24.02,East,97,0.0,0.0,24,-99.99,,,-99.99,meteohub,2013-06-23 05:47:00,
2013-06-22 23:52:00,46.4,31.5,24.02,East,97,0.0,0.0,24,-99.99,,,-99.99,meteohub,2013-06-23 05:52:00,
2013-06-22 23:57:00,46.0,31.5,24.02,East,97,0.0,0.0,24,-99.99,,,-99.99,meteohub,2013-06-23 05:57:00,